Погода Нерчинский Завод

Погода Нерчинский Завод : погода сейчас, прогноз погоды и архив. Всё, что Вы хотите узнать о погоде Нерчинский Завод!

Хотите узнать прогноз погоды Нерчинский Завод? Тогда Вам сюда: Погода Нерчинский Завод

Поиск расширенной информации на нашем сайте:

Другие новости

Новости СМИ2

Главная страница сайта

Новости сайта

03.07.2017

Напоминаем, что на нашем специализированном сайте Метеоцентр.Азия вы можете получить высокодетализированные автоматические прогнозы погоды по пунктам России, СНГ и мира в авиационном формате (включающие направление и скорость ветра, видимость, явления погоды, количество и форму облачности, нижнюю и верхнюю границу облачности).

Рекомендуем: Бесплатные онлайн игры Барби для девочек.

Погода Нерчинский Завод - сегодня

Время (UTC), дата Ветер
(°,м/с) 
Видим.   Явления Облачность Т
(°С)
Тd
(°С)
f(%) Тe
(°С)
Pmin
(гПа)
dP
(гПа)
Po
(мм)
O2
(г/м3)
Тmin Tmax R s Состояние
почвы
18 20.08.17 180 (Ю) н/о  {ливн. осадки}  10/10 600 м кучево-дожд. 
[Cb cap]
+19.4 +17.6 89 +36  993.6  -1.7  694  257           
21 20.08.17 180 (Ю) 20000 м    10/8 600 м средняя 
[Frnb|As op]
+19.1 +17.3 89 +35  994  0.1  694  257           
00 21.08.17 200 (Ю) 20000 м    3/1 1000 м верхняя 
[Cu hum|Ci fib]
+19.3 +13.5 69 +28  994.6  0.6  695  259  +17.8      влажная 
03 21.08.17 210 (ЮЗ) 7-13{13}  20000 м    3/3 1000 м 
[Cu med, cong]
+19.6 +9.9 53 +23  994.9  0.2  695  259           
06 21.08.17 220 (ЮЗ) 5-12{16}  20000 м    8/4 600 м кучево-дожд., верхняя 
[Cb cap|Ci sp]
+19.8 +9.8 52 +22  994.7  0.1  695  259           
09 21.08.17 220 (ЮЗ) 3{12}  20000 м  в посл. час ливневой дождь  10/8 600 м кучево-дожд., верхняя 
[Cb cap|Ci ing]
+15.7 +10.4 71 +19  996.6  0.8  695  263           
12 21.08.17 230 (ЮЗ) н/о  {ливн. осадки}  10/10 600 м кучево-дожд. 
[Cb cap]
+14.9 +10.2 73 +19  997.1  0.3  695  264    +20.6  0.3     
15 21.08.17 220 (ЮЗ) н/о    10/10 600 м кучево-дожд. 
[Cb cap]
+14.5 +9.5 72 +17  997.7  0.5  696  264           
18 21.08.17 230 (ЮЗ) н/о    10/10 1000 м 
[Sc]
+13.8 +8.8 72 +15  998.2  0.3  696  265           
21 21.08.17 230 (ЮЗ) 10 км  дым  4/0 средняя 
[Ac trans]
+12.9 +7.6 70 +13  999  0.4  696  267           
00 22.08.17 240 (ЮЗ) 10 км  мгла  10/10 1000 м 
[Sc]
+14.2 +8.4 68 +15  999.7  697  265  +12.7        влажная 
03 22.08.17 260 (З) 6000 м  мгла  10/10 600 м кучево-дожд. 
[Cb cap]
+15.8 +8 60 +16  1000.8  1.4  698  264           
06 22.08.17 270 (З) 4-11{11}  6000 м  мгла  10/10 600 м кучево-дожд. 
[Cb cap]
+17.3 +8.5 56 +19  1002.1  1.5  699  263           
09 22.08.17 280 (З) 3{11}  6000 м  мгла  10/6 1000 м верхняя 
[Sc|Ci sp]
+18.4 +8.6 53 +20  1003.2  1.5  700  263           
12 22.08.17 210 (ЮЗ) н/о  мгла  4/3 1000 м средняя, верхняя 
[Sc|Ac cast|Ci sp]
+14.1 +9 71 +16  1005.8  1.4  701  267    +19.2       
15 22.08.17 290 (З) н/о  мгла  3/0 верхняя 
[Ci sp]
+12.5 +8.4 76 +13  1006.9  0.7  702  269           
18 22.08.17 290 (З) н/о  мгла  ясно 
+11.4 +8.4 82 +13  1007.2  702  270           
21 22.08.17 240 (ЮЗ) 2800 м  мгла  3/0 верхняя 
[Ci sp]
+7.9 +7 94 +9  1009  0.7  702  274           
00 23.08.17 310 (СЗ) 3000 м  слаб. ливневой дождь  10/10 600 м кучево-дожд. 
[Cb cap]
+12.6 +9.9 84 +16  1007.7  702  269  +7.6    0.0    влажная 
03 23.08.17 230 (ЮЗ) 4600 м  мгла  10/6 600 м кучево-дожд., средняя 
[Cb cap|Ac As]
+15.7 +10.4 71 +19  1005.9  -0.9  702  265           
06 23.08.17 170 (Ю) 10 км    9/8 1000 м верхняя 
[Cu med, cong|Ci ing]
+18.4 +9.6 56 +21  1003.3  -1.8  700  263           
09 23.08.17 200 (Ю) 10 км  дым{ливн. осадки}  10/10 600 м кучево-дожд. 
[Cb cap]
+15.7 +10.8 73 +21  1002.6  -1.3  699  264           
12 23.08.17 240 (ЮЗ) н/о  мгла  10/10 1000 м 
[Sc]
+12 +10.6 91 +16  1001.7  -1.7  698  267    +18.5       
15 23.08.17 210 (ЮЗ) н/о  гроза, ливневой дождь  10/10 600 м кучево-дожд. 
[Cb cap]
+11.6 +10.8 95 +17  999.8  -1.9  697  267           
18 23.08.17 тихо ()   н/о  слаб. ливневой дождь{гроза}  10/10 600 м кучево-дожд. 
[Cb cap]
+10.8 +10 95 +13  998.1  -1.7  695  268           
Время (UTC), дата Ветер
(°,м/с) 
Видим.   Явления Облачность Т
(°С)
Тd
(°С)
f(%) Тe
(°С)
Pmin
(гПа)
dP
(гПа)
Po
(мм)
O2
(г/м3)
Тmin Tmax R s Состояние
почвы

Для получения пояснительной информации подведите курсор к названию столбца.

ПОГОДА Нерчинский Завод - архив

Всё, что Вы хотите узнать о погоде Нерчинский Завод - удобно и подробно!

Выберите нужную дату (начиная с 1 января 2015* года) и нажмите кнопку "Найти".
Будут отображены архивные сводки погоды по пункту Нерчинский Завод, начиная с указанной даты.


Отображать данные в формате CSV (для использования в таблицах Excel)


Внимание! Наш архив погоды предназначен исключительно для личного некоммерческого использования в познавательных целях. Если Вам необходимы официальные справки о состоянии погоды (для производственных, юридических, коммерческих и т.п. целей), обращайтесь в органы Росгидромета.

*Примечание: данная дата относится к архиву по метеостанциям СССР (Россия, СНГ, Балтия).
Архив по метеостанциям Зарубежной Европы и Азии (кроме Китая) хранится 10 дней, по другим регионам земного шара (Китай, Африка, Америка, Австралия, Океания) - 1 день.

Нерчинский Завод - район местоположения метеостанции


Название, широта, долгота, высота метеостанции:
Нерчинский Завод 51.3°ш. 119.6°д. 619 м над ур. моря [Российская Федерация]

Дополнительная информация

В oтличие oт бoльшинства пoгoдных сайтoв мы публикуем пoдрoбную метеoинфoрмацию в детальнoм прoфессиoнальнoм фoрмате.

Характеристики температуры и влажнoсти вoздуха измеряются на высoте 2 м в тени вдали oт зданий и деревьев.
Скoрoсть ветра измеряется на высoте 10 м (на урoвне рoста челoвека скoрoсть ветра ниже в 1.5-2 раза). Если метеoстанция нахoдится в гoрoде или в лесу, тo скoрoсть ветра занижена на 2-4 м/с пo сравнению с oткрытым местoм. Скoрoсть ветра над акватoриями крупных рек и oзёр, а также на вершинах хoлмoв на 2-5 м/с выше, чем в oбычных услoвиях.
Атмoсфернoе давление в разных тoчках местнoсти мoжет значительнo oтличаться oт давления на метеoстанции, в зависимoсти oт услoвий рельефа (при пoдъёме на 10 м давление пoнижается примернo на 1 мм рт.ст.).